| time (UTC) | temp C | wind direction | speed KPH | gust KPH | rain 1hr cm | rain 24hr cm | rain mn cm | humidity % | barometer mb |
| 20260508193101 | 11 | 56 | 6.4 | 16.1 | 0.00 | 1.93 | 0.00 | 71 | 1001.3 |
| 20260508191600 | 12 | 31 | 6.4 | 19.3 | 0.00 | 1.93 | 0.00 | 68 | 1001.3 |
| 20260508190058 | 12 | 18 | 11.3 | 19.3 | 0.00 | 1.93 | 0.00 | 68 | 1001.2 |
| 20260508184608 | 12 | 356 | 8.0 | 22.5 | 0.00 | 2.39 | 0.00 | 68 | 1001.2 |
| 20260508183104 | 12 | 46 | 6.4 | 19.3 | 0.00 | 2.39 | 0.00 | 69 | 1000.9 |
| 20260508181552 | 11 | 51 | 4.8 | 17.7 | 0.00 | 2.39 | 0.00 | 67 | 1001.2 |
| 20260508180053 | 11 | 87 | 8.0 | 19.3 | 0.00 | 2.39 | 0.00 | 68 | 1001.4 |
| 20260508174603 | 12 | 19 | 8.0 | 19.3 | 0.00 | 2.39 | 0.00 | 74 | 1001.3 |
| 20260508173055 | 11 | 65 | 8.0 | 17.7 | 0.00 | 2.39 | 0.00 | 71 | 1001.2 |
| 20260508171600 | 11 | 54 | 6.4 | 17.7 | 0.00 | 2.39 | 0.00 | 73 | 1001.6 |
| 20260508170058 | 11 | 112 | 9.7 | 19.3 | 0.00 | 2.39 | 0.00 | 75 | 1001.7 |
| 20260508164558 | 11 | 130 | 4.8 | 16.1 | 0.00 | 2.39 | 0.00 | 76 | 1001.6 |
| 20260508163114 | 11 | 33 | 6.4 | 14.5 | 0.00 | 2.39 | 0.00 | 75 | 1001.6 |
| 20260508161557 | 10 | 107 | 6.4 | 16.1 | 0.00 | 2.39 | 0.00 | 76 | 1001.5 |
| 20260508160054 | 11 | 22 | 8.0 | 17.7 | 0.00 | 2.39 | 0.00 | 74 | 1001.8 |
| 20260508154554 | 11 | 65 | 6.4 | 14.5 | 0.00 | 2.39 | 0.00 | 76 | 1001.7 |
| 20260508153057 | 12 | 14 | 6.4 | 14.5 | 0.00 | 2.39 | 0.00 | 73 | 1001.7 |
| 20260508151553 | 12 | 95 | 8.0 | 20.9 | 0.00 | 2.39 | 0.00 | 75 | 1001.7 |
| 20260508150050 | 11 | 7 | 6.4 | 20.9 | 0.00 | 2.39 | 0.00 | 76 | 1001.8 |
| 20260508144555 | 12 | 351 | 6.4 | 19.3 | 0.00 | 2.39 | 0.00 | 75 | 1001.9 |
| 20260508143054 | 11 | 359 | 9.7 | 17.7 | 0.00 | 2.39 | 0.00 | 79 | 1001.9 |
| 20260508141601 | 10 | 54 | 6.4 | 14.5 | 0.00 | 2.39 | 0.00 | 83 | 1002.1 |
| 20260508140055 | 10 | 81 | 4.8 | 12.9 | 0.00 | 2.39 | 0.00 | 84 | 1002.3 |
| 20260508134552 | 9 | 136 | 6.4 | 16.1 | 0.00 | 2.39 | 0.00 | 85 | 1002.4 |
| 20260508133055 | 10 | 105 | 3.2 | 16.1 | 0.00 | 2.39 | 0.00 | 87 | 1002.6 |
| 20260508131556 | 10 | 113 | 6.4 | 17.7 | 0.00 | 2.39 | 0.00 | 88 | 1002.4 |
| 20260508130108 | 10 | 52 | 3.2 | 9.7 | 0.00 | 2.39 | 0.00 | 91 | 1002.0 |
| 20260508124556 | 8 | 92 | 4.8 | 11.3 | 0.00 | 2.41 | 0.00 | 95 | 1002.0 |
| 20260508123055 | 8 | 155 | 4.8 | 12.9 | 0.00 | 2.41 | 0.00 | 96 | 1002.1 |
| 20260508121551 | 7 | 123 | 1.6 | 6.4 | 0.00 | 2.41 | 0.00 | 98 | 1002.0 |
| 20260508120054 | 7 | 137 | 4.8 | 9.7 | 0.00 | 2.41 | 0.00 | 98 | 1002.4 |
| 20260508114553 | 7 | 145 | 1.6 | 8.0 | 0.00 | 2.44 | 0.00 | 98 | 1002.7 |
| 20260508113055 | 7 | 0 | 1.6 | 11.3 | 0.00 | 2.44 | 0.00 | 99 | 1002.5 |
| 20260508111552 | 6 | 50 | 3.2 | 11.3 | 0.00 | 2.44 | 0.00 | 99 | 1002.4 |
| 20260508110109 | 6 | 353 | 3.2 | 11.3 | 0.00 | 2.44 | 0.00 | 100 | 1002.6 |
| 20260508104602 | 5 | 349 | 3.2 | 8.0 | 0.00 | 2.49 | 0.00 | 99 | 1002.7 |
| 20260508103057 | 5 | 17 | 0.0 | 4.8 | 0.00 | 2.49 | 0.00 | 99 | 1003.0 |
| 20260508101556 | 5 | 0 | 0.0 | 0.0 | 0.00 | 2.49 | 0.00 | 99 | 1002.7 |
| 20260508100052 | 5 | 0 | 0.0 | 6.4 | 0.00 | 2.49 | 0.00 | 99 | 1002.7 |
| 20260508094556 | 5 | 0 | 0.0 | 4.8 | 0.00 | 2.51 | 0.00 | 99 | 1002.4 |
| 20260508093101 | 5 | 14 | 3.2 | 6.4 | 0.00 | 2.51 | 0.00 | 99 | 1002.3 |
| 20260508091552 | 5 | 0 | 3.2 | 8.0 | 0.00 | 2.51 | 0.00 | 99 | 1002.3 |
| 20260508090108 | 5 | 27 | 3.2 | 8.0 | 0.00 | 2.51 | 0.00 | 99 | 1002.3 |
| 20260508084553 | 4 | 14 | 3.2 | 9.7 | 0.00 | 2.54 | 0.00 | 99 | 1002.3 |
| 20260508083055 | 4 | 39 | 6.4 | 16.1 | 0.00 | 2.54 | 0.00 | 99 | 1002.1 |
| 20260508081559 | 5 | 23 | 3.2 | 8.0 | 0.00 | 2.54 | 0.00 | 99 | 1001.6 |
| 20260508080054 | 5 | 102 | 3.2 | 11.3 | 0.00 | 2.54 | 0.00 | 98 | 1001.7 |
| 20260508074555 | 5 | 48 | 4.8 | 12.9 | 0.00 | 2.59 | 0.00 | 98 | 1001.8 |
| 20260508073053 | 6 | 41 | 6.4 | 12.9 | 0.00 | 2.59 | 0.00 | 98 | 1001.8 |
| 20260508071555 | 6 | 30 | 3.2 | 11.3 | 0.00 | 2.59 | 0.00 | 99 | 1001.8 |
| 20260508070055 | 7 | 25 | 1.6 | 8.0 | 0.00 | 2.59 | 0.00 | 99 | 1001.8 |
| 20260508064556 | 7 | 46 | 1.6 | 4.8 | 0.00 | 2.59 | 0.00 | 99 | 1001.6 |
| 20260508063055 | 7 | 27 | 4.8 | 9.7 | 0.00 | 2.59 | 0.00 | 99 | 1001.7 |
| 20260508061556 | 7 | 15 | 1.6 | 6.4 | 0.00 | 2.59 | 0.00 | 99 | 1002.0 |
| 20260508060054 | 7 | 345 | 3.2 | 9.7 | 0.00 | 2.59 | 0.00 | 99 | 1001.7 |
| 20260508054632 | 7 | 354 | 1.6 | 4.8 | 0.00 | 2.59 | 0.00 | 99 | 1001.7 |
| 20260508053055 | 7 | 0 | 1.6 | 6.4 | 0.00 | 2.59 | 0.00 | 99 | 1001.7 |
| 20260508051553 | 8 | 16 | 3.2 | 6.4 | 0.00 | 2.59 | 0.00 | 99 | 1001.5 |
| 20260508050054 | 8 | 39 | 1.6 | 4.8 | 0.00 | 2.59 | 0.00 | 99 | 1001.5 |
| 20260508044600 | 8 | 0 | 0.0 | 3.2 | 0.00 | 2.59 | 0.00 | 100 | 1001.6 |
| 20260508043053 | 8 | 0 | 0.0 | 0.0 | 0.00 | 2.59 | 0.00 | 99 | 1001.6 |
| 20260508041600 | 8 | 0 | 0.0 | 0.0 | 0.00 | 2.59 | 0.00 | 99 | 1001.7 |
| 20260508040058 | 7 | 0 | 0.0 | 3.2 | 0.00 | 2.59 | 0.00 | 99 | 1001.7 |
| 20260508034602 | 7 | 235 | 0.0 | 3.2 | 0.00 | 2.59 | 0.00 | 99 | 1002.1 |
| 20260508033052 | 7 | 0 | 1.6 | 4.8 | 0.00 | 2.59 | 0.00 | 99 | 1002.1 |
| 20260508031603 | 8 | 0 | 0.0 | 6.4 | 0.00 | 2.59 | 0.00 | 99 | 1002.2 |
| 20260508030111 | 8 | 0 | 0.0 | 4.8 | 0.00 | 2.59 | 0.00 | 99 | 1002.3 |
| 20260508024555 | 8 | 0 | 0.0 | 6.4 | 0.00 | 2.59 | 2.59 | 99 | 1002.2 |
| 20260508023055 | 8 | 212 | 1.6 | 8.0 | 0.00 | 2.59 | 2.59 | 99 | 1002.2 |
| 20260508021613 | 8 | 235 | 4.8 | 9.7 | 0.00 | 2.59 | 2.59 | 99 | 1001.9 |
| 20260508020053 | 8 | 264 | 3.2 | 9.7 | 0.00 | 2.59 | 2.59 | 99 | 1002.1 |
| 20260508014551 | 8 | 253 | 3.2 | 9.7 | 0.00 | 2.59 | 2.59 | 99 | 1002.1 |
| 20260508013106 | 8 | 249 | 1.6 | 9.7 | 0.00 | 2.59 | 2.59 | 99 | 1001.9 |
| 20260508011557 | 8 | 215 | 3.2 | 12.9 | 0.00 | 2.59 | 2.59 | 98 | 1001.9 |
| 20260508010055 | 9 | 283 | 3.2 | 16.1 | 0.00 | 2.59 | 2.59 | 98 | 1002.3 |
| 20260508004559 | 9 | 236 | 3.2 | 14.5 | 0.00 | 2.59 | 2.59 | 98 | 1002.2 |
| 20260508003105 | 9 | 229 | 3.2 | 16.1 | 0.00 | 2.59 | 2.59 | 99 | 1002.3 |
| 20260508001553 | 10 | 264 | 3.2 | 11.3 | 0.00 | 2.59 | 2.59 | 99 | 1002.3 |
| 20260508000054 | 9 | 245 | 3.2 | 9.7 | 0.00 | 2.59 | 2.59 | 99 | 1002.5 |
| 20260507234554 | 9 | 229 | 3.2 | 11.3 | 0.00 | 2.59 | 2.59 | 98 | 1002.6 |
| 20260507233053 | 10 | 183 | 4.8 | 12.9 | 0.00 | 2.59 | 2.59 | 98 | 1002.5 |
| 20260507231557 | 10 | 187 | 3.2 | 11.3 | 0.00 | 2.59 | 2.59 | 98 | 1002.4 |
| 20260507230050 | 10 | 207 | 3.2 | 11.3 | 0.00 | 2.59 | 2.59 | 98 | 1002.5 |
| 20260507224604 | 10 | 166 | 4.8 | 14.5 | 0.00 | 2.59 | 2.59 | 98 | 1002.6 |
| 20260507223056 | 10 | 196 | 3.2 | 17.7 | 0.03 | 2.59 | 2.59 | 98 | 1002.5 |
| 20260507221551 | 10 | 166 | 8.0 | 20.9 | 0.10 | 2.59 | 2.59 | 98 | 1003.0 |
| 20260507220055 | 10 | 187 | 8.0 | 20.9 | 0.23 | 2.59 | 2.59 | 98 | 1002.8 |
| 20260507214555 | 10 | 228 | 6.4 | 19.3 | 0.41 | 2.59 | 2.59 | 98 | 1002.8 |
| 20260507213055 | 10 | 156 | 6.4 | 19.3 | 0.58 | 2.57 | 2.57 | 98 | 1002.9 |
| 20260507211557 | 9 | 183 | 3.2 | 16.1 | 0.74 | 2.49 | 2.49 | 98 | 1002.7 |
| 20260507210119 | 9 | 184 | 6.4 | 17.7 | 0.81 | 2.36 | 2.36 | 98 | 1002.2 |
| 20260507204557 | 9 | 164 | 6.4 | 20.9 | 0.86 | 2.18 | 2.18 | 98 | 1002.6 |
| 20260507203107 | 9 | 157 | 6.4 | 14.5 | 0.89 | 1.98 | 1.98 | 98 | 1003.5 |
| 20260507201602 | 9 | 192 | 6.4 | 19.3 | 0.89 | 1.75 | 1.75 | 98 | 1003.8 |
| 20260507200104 | 9 | 187 | 8.0 | 25.7 | 0.84 | 1.52 | 1.52 | 97 | 1004.1 |
| 20260507194552 | 9 | 173 | 12.9 | 32.2 | 0.79 | 1.30 | 1.30 | 97 | 1004.7 |